Location: Acheville
(50.3840°N, 2.8827°E)
Time: 15:55:38
(UTC+00:00)

NOSS 3-2 (A) - Pass Details

Date: 24 October 2021
Orbit: 771 x 1437 km, 63.4° (Epoch: 21 November)

Event Time Altitude Azimuth Distance (km) Brightness Sun altitude
Rises 19:54:37 0° 314° (NW) 3,830 7.5 -31.5°
Reaches altitude 10° 19:57:09 10° 318° (NW) 2,965 6.7 -31.9°
Enters shadow 20:03:52 61° 24° (NNE) 1,374 4.1 -32.9°
